When you browse on this site, cookies collect data to enhance your experience and personalize the content and advertising you see.
Visit our Privacy Policy to learn more. By continuing to use the site, you agree to this use of cookies and data.
  • In Latvia
  • List of Countries
  • For 7 days
  • Water Temperature
  • Satellite Maps
  • Weather Map
  • Weather Widgets
  • user-avatar
    Login

    Hourly Weather Muttenz

    Today, 17 July, Wednesday

    Time Temperature Precipitation Wind Pressure Humidity
    00:00 +15°C° 0 mm 0 mps 724 mmHg 84%
    01:00 +15°C° 0 mm 0 mps 724 mmHg 87%
    02:00 +14°C° 0 mm 0 mps 723 mmHg 88%
    03:00 +14°C° 0 mm 0 mps 723 mmHg 89%
    04:00 +14°C° 0 mm 0 mps 723 mmHg 90%
    05:00 +15°C° 0 mm 0 mps 723 mmHg 87%
    06:00 +16°C° 0 mm 0 mps 723 mmHg 84%
    07:00 +17°C° 0 mm 0 mps 723 mmHg 79%
    08:00 +19°C° 0 mm 0 mps 723 mmHg 72%
    09:00 +23°C° 0 mm 1 mps 723 mmHg 66%
    10:00 +25°C° 0 mm 1 mps 723 mmHg 59%
    11:00 +26°C° 0 mm 2 mps 723 mmHg 55%
    12:00 +26°C° 0 mm 2 mps 723 mmHg 50%
    13:00 +27°C° 0 mm 2 mps 723 mmHg 45%
    14:00 +27°C° 0 mm 3 mps 723 mmHg 45%
    15:00 +27°C° 0 mm 3 mps 723 mmHg 44%
    16:00 +27°C° 0 mm 3 mps 723 mmHg 43%
    17:00 +26°C° 0 mm 2 mps 722 mmHg 50%
    18:00 +25°C° 0 mm 2 mps 722 mmHg 56%
    19:00 +23°C° 0 mm 1 mps 722 mmHg 63%
    20:00 +22°C° 0 mm 1 mps 722 mmHg 67%
    21:00 +20°C° 0 mm 1 mps 722 mmHg 71%
    22:00 +18°C° 0 mm 1 mps 722 mmHg 75%
    23:00 +18°C° 0 mm 1 mps 722 mmHg 75%

    Tomorrow, 18 July, Thursday

    Time Temperature Precipitation Wind Pressure Humidity
    00:00 +16°C° 0 mm 1 mps 722 mmHg 76%
    01:00 +15°C° 0 mm 0 mps 722 mmHg 76%
    02:00 +16°C° 0 mm 1 mps 722 mmHg 77%
    03:00 +16°C° 0 mm 1 mps 722 mmHg 77%
    04:00 +15°C° 0 mm 1 mps 721 mmHg 78%
    05:00 +16°C° 0 mm 1 mps 722 mmHg 76%
    06:00 +18°C° 0 mm 1 mps 722 mmHg 74%
    07:00 +19°C° 0 mm 1 mps 722 mmHg 71%
    08:00 +21°C° 0 mm 1 mps 722 mmHg 64%
    09:00 +23°C° 0 mm 1 mps 722 mmHg 57%
    10:00 +25°C° 0 mm 2 mps 723 mmHg 50%
    11:00 +26°C° 0 mm 2 mps 723 mmHg 48%
    12:00 +26°C° 0 mm 2 mps 722 mmHg 45%
    13:00 +27°C° 0 mm 2 mps 722 mmHg 43%
    14:00 +27°C° 0 mm 2 mps 722 mmHg 45%
    15:00 +27°C° 0 mm 2 mps 722 mmHg 47%
    16:00 +27°C° 0 mm 2 mps 722 mmHg 49%
    17:00 +25°C° 0 mm 2 mps 722 mmHg 55%
    18:00 +24°C° 0 mm 2 mps 722 mmHg 61%
    19:00 +23°C° 0 mm 1 mps 722 mmHg 67%
    20:00 +22°C° 0.1 mm 1 mps 723 mmHg 72%
    21:00 +20°C° 0.1 mm 1 mps 723 mmHg 76%
    22:00 +19°C° 0.1 mm 1 mps 723 mmHg 81%
    23:00 +19°C° 0 mm 1 mps 723 mmHg 82%

    Day after tomorrow, 19 July, Friday

    Time Temperature Precipitation Wind Pressure Humidity
    00:00 +18°C° 0 mm 1 mps 723 mmHg 84%
    01:00 +16°C° 0 mm 0 mps 723 mmHg 85%
    02:00 +16°C° 0 mm 0 mps 723 mmHg 86%
    03:00 +16°C° 0 mm 1 mps 723 mmHg 88%
    04:00 +16°C° 0 mm 1 mps 723 mmHg 89%
    05:00 +16°C° 0 mm 1 mps 724 mmHg 88%
    06:00 +18°C° 0 mm 1 mps 724 mmHg 86%
    07:00 +19°C° 0 mm 1 mps 724 mmHg 85%
    08:00 +21°C° 0.1 mm 1 mps 724 mmHg 78%
    09:00 +23°C° 0.1 mm 1 mps 724 mmHg 71%
    10:00 +24°C° 0.1 mm 1 mps 724 mmHg 64%
    11:00 +25°C° 0.1 mm 2 mps 724 mmHg 60%
    12:00 +26°C° 0.1 mm 2 mps 724 mmHg 56%
    13:00 +27°C° 0.1 mm 3 mps 724 mmHg 52%
    14:00 +27°C° 0 mm 3 mps 724 mmHg 52%
    15:00 +27°C° 0 mm 3 mps 724 mmHg 51%
    16:00 +27°C° 0 mm 3 mps 724 mmHg 51%
    17:00 +26°C° 0 mm 2 mps 724 mmHg 58%
    18:00 +25°C° 0 mm 2 mps 724 mmHg 64%
    19:00 +24°C° 0 mm 2 mps 724 mmHg 71%
    20:00 +22°C° 0 mm 1 mps 724 mmHg 76%
    21:00 +21°C° 0 mm 1 mps 724 mmHg 81%
    22:00 +17°C° 0 mm 0 mps 724 mmHg 86%
    23:00 +17°C° 0 mm 0 mps 724 mmHg 86%

    20 July, Saturday

    Time Temperature Precipitation Wind Pressure Humidity
    00:00 +16°C° 0 mm 0 mps 724 mmHg 87%
    01:00 +16°C° 0 mm 0 mps 724 mmHg 87%
    02:00 +16°C° 0 mm 0 mps 723 mmHg 88%
    03:00 +16°C° 0 mm 1 mps 723 mmHg 89%
    04:00 +16°C° 0 mm 1 mps 723 mmHg 90%
    05:00 +18°C° 0 mm 1 mps 723 mmHg 87%
    06:00 +19°C° 0 mm 1 mps 724 mmHg 84%
    07:00 +20°C° 0 mm 1 mps 724 mmHg 81%
    08:00 +23°C° 0 mm 1 mps 724 mmHg 72%
    09:00 +25°C° 0 mm 1 mps 725 mmHg 63%
    10:00 +28°C° 0 mm 1 mps 725 mmHg 54%
    11:00 +28°C° 0 mm 2 mps 725 mmHg 51%
    12:00 +29°C° 0 mm 2 mps 725 mmHg 47%
    13:00 +30°C° 0 mm 3 mps 725 mmHg 44%
    14:00 +30°C° 0 mm 3 mps 725 mmHg 44%
    15:00 +30°C° 0 mm 4 mps 725 mmHg 44%
    16:00 +32°C° 0 mm 4 mps 725 mmHg 44%
    17:00 +29°C° 0 mm 3 mps 725 mmHg 52%
    18:00 +28°C° 0 mm 2 mps 725 mmHg 59%
    19:00 +26°C° 0 mm 1 mps 725 mmHg 67%
    20:00 +25°C° 0 mm 1 mps 725 mmHg 68%
    21:00 +23°C° 0 mm 1 mps 725 mmHg 70%
    22:00 +22°C° 0 mm 1 mps 726 mmHg 72%
    23:00 +21°C° 0.3 mm 1 mps 726 mmHg 75%

    21 July, Sunday

    Time Temperature Precipitation Wind Pressure Humidity
    00:00 +21°C° 0.3 mm 1 mps 726 mmHg 78%
    01:00 +21°C° 0.3 mm 1 mps 726 mmHg 81%
    02:00 +20°C° 0 mm 1 mps 726 mmHg 82%
    03:00 +20°C° 0 mm 1 mps 726 mmHg 83%
    04:00 +20°C° 0 mm 1 mps 726 mmHg 85%
    05:00 +20°C° 0.2 mm 1 mps 727 mmHg 85%
    06:00 +21°C° 0.2 mm 1 mps 727 mmHg 86%
    07:00 +21°C° 0.2 mm 1 mps 727 mmHg 86%
    08:00 +23°C° 0.1 mm 1 mps 728 mmHg 78%
    09:00 +25°C° 0.1 mm 1 mps 728 mmHg 69%
    10:00 +28°C° 0.1 mm 1 mps 729 mmHg 61%
    11:00 +28°C° 0 mm 1 mps 729 mmHg 57%
    12:00 +29°C° 0 mm 2 mps 729 mmHg 54%
    13:00 +30°C° 0 mm 2 mps 728 mmHg 50%
    14:00 +30°C° 0 mm 2 mps 728 mmHg 50%
    15:00 +30°C° 0 mm 2 mps 728 mmHg 50%
    16:00 +30°C° 0 mm 2 mps 728 mmHg 50%
    17:00 +29°C° 0 mm 2 mps 728 mmHg 56%
    18:00 +28°C° 0 mm 1 mps 728 mmHg 63%
    19:00 +27°C° 0 mm 1 mps 728 mmHg 69%
    20:00 +25°C° 0 mm 1 mps 728 mmHg 73%
    21:00 +24°C° 0 mm 1 mps 728 mmHg 77%
    22:00 +22°C° 0 mm 1 mps 728 mmHg 81%
    23:00 +19°C° 0 mm 0 mps 728 mmHg 82%

    22 July, Monday

    Time Temperature Precipitation Wind Pressure Humidity
    00:00 +19°C° 0 mm 0 mps 728 mmHg 84%
    01:00 +18°C° 0 mm 0 mps 728 mmHg 85%
    02:00 +18°C° 0 mm 0 mps 727 mmHg 87%
    03:00 +18°C° 0 mm 0 mps 727 mmHg 88%
    04:00 +17°C° 0 mm 0 mps 727 mmHg 89%
    05:00 +20°C° 0 mm 1 mps 727 mmHg 86%
    06:00 +21°C° 0 mm 1 mps 727 mmHg 84%
    07:00 +22°C° 0 mm 1 mps 727 mmHg 81%
    08:00 +25°C° 0 mm 1 mps 728 mmHg 73%
    09:00 +27°C° 0 mm 1 mps 728 mmHg 65%
    10:00 +29°C° 0 mm 1 mps 728 mmHg 57%
    11:00 +31°C° 0 mm 1 mps 727 mmHg 53%
    12:00 +32°C° 0 mm 1 mps 727 mmHg 50%
    13:00 +34°C° 0 mm 1 mps 727 mmHg 46%
    14:00 +33°C° 0 mm 1 mps 727 mmHg 46%
    15:00 +34°C° 0 mm 2 mps 727 mmHg 46%
    16:00 +34°C° 0 mm 2 mps 727 mmHg 47%
    17:00 +32°C° 0 mm 2 mps 726 mmHg 55%
    18:00 +30°C° 0 mm 1 mps 726 mmHg 62%
    19:00 +29°C° 0 mm 1 mps 726 mmHg 70%
    20:00 +27°C° 0.1 mm 1 mps 726 mmHg 74%
    21:00 +25°C° 0.1 mm 1 mps 726 mmHg 77%
    22:00 +22°C° 0.1 mm 0 mps 726 mmHg 81%
    23:00 +21°C° 0 mm 0 mps 726 mmHg 82%
    Show more